#timestamp,LO_Frequency,Hit,StdDev 
1459598415.3,286046999.0,N
1459598435.2,286046993.7,N
1459598455.9,286046994.0,N
1459598475.7,286046992.1,N
1459598495.6,286046995.4,N
1459598515.4,286046994.9,N
1459598535.2,286046996.3,N
1459598555.1,286046995.2,N
1459598556.0,286046995.2,N
1459598575.8,286046996.2,N
1459598595.6,286046997.0,N
1459598615.5,286047002.4,N
1459598635.3,286047004.0,N
1459598655.1,286047002.5,N
1459598675.8,286046998.2,N
1459598695.7,286046999.0,N
1459598715.5,286046999.1,N
1459598735.3,286046996.8,N
1459598755.2,286046999.2,N
1459598775.9,286046998.9,N
1459598795.7,286046997.1,N
1459598815.6,286046994.9,N
1459598835.4,286046995.9,N
1459598855.2,286046993.9,N
1459598875.1,286046992.9,N
1459598876.0,286046992.9,N
1459598895.8,286046991.5,N
1459598915.6,286046989.9,Y
1459598935.5,286046991.4,P
1459598955.3,286046988.8,P
1459598975.1,286046990.9,N
1459598995.9,286046994.2,N
1459599015.7,286046997.2,N
1459599035.5,286047000.1,N
1459599055.4,286047002.6,N
1459599075.2,286047001.3,N
1459599095.0,286047002.8,N
1459599095.9,286047002.8,N
1459599115.7,286046998.8,N
1459599135.6,286046997.9,N
1459599155.4,286046994.3,N
1459599175.2,286046991.8,N
1459599195.1,286046994.8,N
1459599196.0,286046994.8,N
1459599215.8,286046992.1,N
1459599235.6,286046994.2,N
1459599255.5,286046995.9,N
1459599275.3,286046994.0,N
1459599295.1,286046994.5,N
1459599315.9,286046994.9,N
1459599335.7,286046992.1,N
1459599355.5,286046993.9,N
1459599375.4,286046993.9,N
1459599395.2,286046993.9,N
1459599415.0,286046992.2,N
1459599415.9,286046992.2,N
1459599435.7,286046994.1,N
1459599455.6,286046994.7,N
1459599475.4,286046995.3,N
1459599495.2,286046998.0,N
1459599515.1,286046996.4,N
1459599516.0,286046996.4,N
1459599535.8,286046993.6,N
1459599555.6,286046996.2,N
1459599575.5,286046996.7,N
1459599595.3,286046997.6,N
1459599615.1,286046993.4,N
1459599635.9,286046994.0,N
1459599655.7,286046994.4,Y
1459599675.5,286047001.4,P
1459599695.4,286047003.8,N
1459599715.2,286046998.2,N
1459599735.0,286046998.2,N
1459599735.9,286046998.2,N
1459599755.8,286047000.8,N
1459599775.6,286047001.0,N
1459599795.4,286047000.1,N
1459599815.3,286047000.2,N
1459599835.1,286047000.9,N
1459599836.0,286047000.9,N
1459599855.8,286046998.8,N
1459599875.7,286046997.7,N
1459599895.5,286046994.9,N
1459599915.3,286046997.7,N
1459599935.1,286046996.8,N
1459599955.9,286047002.5,N
1459599975.7,286047001.9,N
1459599995.5,286047004.4,N
1459600015.4,286047001.8,N
1459600035.2,286047002.0,N
1459600055.0,286047005.6,N
1459600055.9,286047005.6,N
1459600075.8,286047007.3,N
1459600095.6,286047007.4,N
1459600115.4,286047008.7,N
1459600135.3,286047007.2,N
1459600155.1,286047004.6,N
1459600156.0,286047004.6,N
1459600175.8,286047005.0,N
1459600195.7,286047005.6,N
1459600215.5,286047006.4,N
1459600235.3,286047010.6,N
1459600255.2,286047007.9,N
1459600275.9,286047011.7,Y
1459600295.7,286047008.9,P
1459600315.6,286047010.4,P
1459600335.4,286047008.8,N
1459600355.2,286047005.4,N
1459600375.0,286047005.3,N
1459600376.0,286047005.3,N
1459600395.8,286047005.7,N
1459600415.6,286047006.7,N
1459600435.4,286047004.0,N
1459600455.3,286047003.3,N
1459600475.1,286047001.2,N
1459600495.8,286046994.9,N
1459600515.7,286047001.2,N
1459600535.5,286046998.9,N
1459600555.3,286046997.3,N
1459600575.2,286046995.2,N
1459600595.9,286046996.2,N
1459600615.7,286046993.8,N
1459600635.6,286046995.4,N
1459600655.4,286046997.4,N
1459600675.2,286046998.0,N
1459600695.1,286046995.8,N
1459600696.0,286046995.8,N
1459600715.8,286046999.4,N
1459600735.6,286046993.4,N
1459600755.4,286046994.3,N
1459600775.3,286046990.2,N
1459600795.1,286046990.6,N
1459600815.8,286046988.5,N
1459600835.7,286046989.6,N
1459600855.5,286046985.7,N
1459600875.3,286046989.6,N
1459600895.2,286046991.1,N
1459600915.9,286046991.0,N
1459600935.7,286046986.1,N
1459600955.6,286046986.1,N
1459600975.4,286046982.8,Y
1459600995.2,286046989.1,P
1459601015.1,286046987.0,P
1459601016.0,286046987.0,P
1459601035.8,286046988.1,Y
1459601055.6,286046999.0,P
1459601075.5,286046998.2,N
1459601095.3,286046998.3,N
1459601115.1,286047000.2,N
1459601135.9,286046998.9,N
1459601155.7,286046996.8,N
1459601175.5,286047002.7,N
1459601195.4,286047002.3,N
1459601215.2,286047005.3,N
1459601235.0,286047008.0,N
1459601235.9,286047008.0,N
1459601255.8,286047002.9,N
1459601275.6,286047007.3,N
1459601295.4,286047009.2,N
1459601315.2,286047008.4,N
1459601335.1,286047007.4,N
1459601336.0,286047007.4,N
1459601355.8,286047006.5,N
1459601375.6,286047006.2,N
1459601395.5,286047004.5,N
1459601415.3,286047004.5,N
1459601435.1,286047004.9,N
1459601455.9,286047004.6,N
1459601475.7,286047005.1,N
1459601495.5,286047007.2,N
1459601515.4,286047002.9,N
1459601535.2,286047003.9,N
1459601555.0,286046999.0,N
1459601555.9,286046999.0,N
1459601575.8,286046996.6,N
1459601595.6,286046998.3,N
1459601615.4,286046996.7,N
1459601635.3,286046999.9,N
1459601655.1,286047002.7,N
1459601656.0,286047002.7,N
1459601675.8,286047005.5,N
1459601695.6,286047005.2,N
1459601715.5,286047004.8,N
1459601735.3,286047004.3,N
1459601755.1,286046998.2,N
1459601775.9,286047000.0,N
1459601795.7,286047000.4,N
1459601815.5,286047002.5,N
1459601835.4,286047003.3,N
1459601855.2,286047002.3,N
1459601875.0,286047003.7,N
1459601875.9,286047003.7,N
1459601895.8,286047005.1,N
1459601915.6,286047005.6,N
1459601935.4,286047005.8,N
1459601955.3,286047001.6,N
1459601975.1,286047003.8,N
1459601976.0,286047003.8,N
1459601995.8,286047005.4,N
